User: anonymous   Login
Location: Newark
(39.5667°N, 8.9833°E)
Time: 15:24:52
(UTC+00:00)
Language:

S-56A Canister/Altair - Orbit

View from above orbital plane
View from above orbital plane
View from above satellite
View from above satellite

Ground track
Ground track

The orbit data is extracted from the following two-line orbital elements,

1    82U 61004B   19286.39793633 -.00000011  00000-0  26847-4 0  9994
2    82  38.8625  36.8766 1174655 326.3258  26.7871 12.26052653777361
Epoch (UTC): 13 October 2019 09:33:01
Eccentricity: 0.1174655
inclination: 38.8625°
perigee height: 633 km
apogee height: 2499 km
right ascension of ascending node: 36.8766°
argument of perigee: 326.3258°
revolutions per day: 12.26052653
mean anomaly at epoch: 26.7871°
orbit number at epoch: 77736

The dashed part of the orbit path shows where the satellite is in the earth's shadow,  

DLR